Location: White Mills Observatory
(37.5374°N, 86.0303°W)
Time: 14:49:44
(UTC-05:00)

Amateur Radio Satellites - All Passes

Search period start: 21 January 2017 14:19
Search period end: 22 January 2017 14:19
Location: White Mills Observatory, 37.5374°N, 86.0303°W

Satellite Date Start Highest point End Downlink Frequencies (MHz)
Time Altitude Azimuth
SPROUT 21 Jan 14:23:18 14:25:30 14° 294° (WNW) 14:27:42 437.525
UKube-1 21 Jan 14:26:54 14:30:32 27° 291° (WNW) 14:34:09 .
DX 1 21 Jan 14:30:30 14:33:33 19° 293° (WNW) 14:36:36 434.975-435.025
ITAMSAT 1 21 Jan 14:32:21 14:37:07 39° 70° (ENE) 14:41:53 435.822/435.867
AIST 1 21 Jan 14:43:00 14:47:19 58° 279° (W) 14:51:37
ITUPSAT 1 21 Jan 14:48:23 14:52:27 27° 96° (E) 14:56:30 437.325
Cosmos 2504 21 Jan 14:49:16 14:57:27 47° 89° (E) 15:05:13 435.465 / 435.565
CUSAT 1 21 Jan 14:52:44 15:00:46 83° 264° (W) 15:07:56 437.405
AO-85 21 Jan 14:54:07 14:58:25 34° 306° (NW) 15:02:26 145.980
MOZHAYETS 4 21 Jan 15:09:07 15:11:16 13° 91° (E) 15:13:24
BEESAT 21 Jan 15:21:43 15:26:29 63° 101° (ESE) 15:31:13 436.000
SWISSCUBE 21 Jan 15:23:28 15:28:17 74° 103° (ESE) 15:33:04 437.505
JUGNU 21 Jan 15:27:08 15:29:48 13° 178° (S) 15:32:29 437.505
BEESAT 3 21 Jan 15:27:58 15:30:13 15° 109° (ESE) 15:32:29 437.485
BRITE-PL 21 Jan 15:31:54 15:34:49 14° 63° (ENE) 15:37:44 437.365/2234.400
TISAT 1 21 Jan 15:47:54 15:49:13 11° 296° (WNW) 15:50:33 437.305
AO-7 21 Jan 15:49:06 15:57:24 69° 255° (WSW) 16:05:47 29.400- 29.500
DANDE 21 Jan 15:53:02 16:01:03 81° 263° (W) 16:09:22 436.750
SO-50 21 Jan 16:04:14 16:07:25 19° 47° (NE) 16:10:34 436.795
ITAMSAT 1 21 Jan 16:12:40 16:16:39 23° 265° (W) 16:20:41 435.822/435.867
BEESAT 2 21 Jan 16:14:29 16:17:29 21° 111° (ESE) 16:20:31 435.950
Cosmos 2491 21 Jan 16:14:41 16:18:00 13° 284° (WNW) 16:21:18 435.465 / 435.565
YUBILEINY 21 Jan 16:14:45 16:22:19 31° 289° (WNW) 16:29:58 435.215
ITUPSAT 1 21 Jan 16:26:05 16:30:12 29° 291° (WNW) 16:34:19 437.325
STARS 21 Jan 16:30:33 16:32:21 12° 92° (E) 16:34:09 437.465
AUBIESAT-1 21 Jan 16:36:13 16:38:52 22° 101° (E) 16:41:31 437.475
CUSAT 1 21 Jan 16:37:26 16:41:21 15° 281° (W) 16:45:06 437.405
NOAA 15 21 Jan 16:42:42 16:44:26 12° 60° (ENE) 16:46:10 137.62
Cosmos 2504 21 Jan 16:43:13 16:50:54 35° 286° (WNW) 16:58:16 435.465 / 435.565
MOZHAYETS 4 21 Jan 16:44:10 16:48:43 55° 286° (WNW) 16:53:14
O/OREOS (USA 219) 21 Jan 16:50:21 16:54:52 83° 251° (WSW) 16:59:23 437.305
SRMSAT 21 Jan 16:59:15 17:01:30 12° 172° (S) 17:03:44 437.500
BEESAT 21 Jan 17:01:26 17:03:42 13° 297° (WNW) 17:05:58 436.000
BEESAT 3 21 Jan 17:03:50 17:07:28 38° 305° (NW) 17:11:11 437.485
SWISSCUBE 21 Jan 17:03:51 17:05:24 11° 298° (WNW) 17:06:56 437.505
GOMX 1 21 Jan 17:05:18 17:10:22 42° 73° (ENE) 17:15:14 467.674
BRITE-PL 21 Jan 17:06:53 17:12:34 79° 258° (WSW) 17:18:13 437.365/2234.400
KKS-1 21 Jan 17:14:55 17:19:21 84° 287° (WNW) 17:23:46 437.445
JUGNU 21 Jan 17:16:05 17:17:57 11° 188° (S) 17:19:48 437.505
HORYU 2 21 Jan 17:20:25 17:24:46 68° 75° (ENE) 17:29:10 437.375
LilacSat-2 21 Jan 17:27:54 17:30:55 23° 70° (ENE) 17:33:58 437.200
CUTE-I 21 Jan 17:30:58 17:35:38 32° 68° (ENE) 17:40:17 437.470
CUBESAT XI-V 21 Jan 17:33:05 17:37:47 72° 102° (ESE) 17:42:24 437.345
M-CUBED/EXP-1 PRIME 21 Jan 17:34:41 17:37:44 34° 292° (WNW) 17:40:43 437.505
DANDE 21 Jan 17:38:27 17:42:44 15° 279° (W) 17:47:06 436.750
DOVE 4 21 Jan 17:38:38 17:43:08 35° 72° (ENE) 17:47:25 437.250
SO-50 21 Jan 17:43:48 17:48:08 48° 244° (WSW) 17:52:25 436.795
AO-7 21 Jan 17:50:28 17:51:28 10° 272° (W) 17:52:27 29.400- 29.500
BEESAT 2 21 Jan 17:51:37 17:55:05 29° 308° (NW) 17:58:35 435.950
HO-68 21 Jan 18:02:51 18:07:38 19° 58° (ENE) 18:12:24 435.675
STARS 21 Jan 18:04:44 18:08:58 51° 287° (WNW) 18:13:12 437.465
AUBIESAT-1 21 Jan 18:11:03 18:13:09 16° 297° (WNW) 18:15:13 437.475
Cubesat XI-IV 21 Jan 18:13:48 18:19:06 81° 75° (ENE) 18:24:26 437.490
NOAA 15 21 Jan 18:18:08 18:23:25 86° 256° (WSW) 18:28:46 137.62
CUTE 1.7 + AOD 2 21 Jan 18:22:43 18:23:38 11° 64° (ENE) 18:24:32 437.475
NOAA 18 21 Jan 18:28:30 18:33:56 63° 73° (ENE) 18:39:21 137.9125
GOMX 1 21 Jan 18:44:22 18:48:29 22° 266° (W) 18:52:31 467.674
SRMSAT 21 Jan 18:46:59 18:49:48 14° 183° (S) 18:52:39 437.500
CANX-2 21 Jan 18:49:20 18:52:50 25° 70° (ENE) 18:56:21 2200.000
CINEMA 3 21 Jan 18:57:58 19:02:16 52° 74° (ENE) 19:06:25 145.822/145.860
SEEDS 21 Jan 18:58:17 19:01:11 18° 68° (ENE) 19:04:06 437.485
Cosmos 2499 21 Jan 19:00:06 19:06:53 28° 85° (E) 19:13:17 435.465 / 435.565
COMPASS 1 21 Jan 19:02:11 19:04:07 13° 65° (ENE) 19:06:03 437.405
LilacSat-2 21 Jan 19:02:19 19:05:08 20° 265° (W) 19:07:58 437.200
GONETS M04 21 Jan 19:06:24 19:13:01 25° 82° (E) 19:19:40
CUTE-I 21 Jan 19:11:04 19:15:37 29° 264° (W) 19:20:11 437.470
AAUSAT CUBESAT 2 21 Jan 19:12:09 19:14:01 13° 65° (ENE) 19:15:52 437.432
CUBESAT XI-V 21 Jan 19:13:10 19:14:29 11° 297° (WNW) 19:15:49 437.345
DOVE 4 21 Jan 19:16:52 19:20:48 23° 265° (W) 19:24:36 437.250
CUBEBUG 2 21 Jan 19:44:00 19:47:48 36° 73° (ENE) 19:51:36 437.445
HO-68 21 Jan 19:47:19 19:54:31 79° 255° (WSW) 20:01:45 435.675
STRAND 1 21 Jan 19:50:03 19:55:04 52° 100° (E) 20:00:05 437.568
CUTE 1.7 + AOD 2 21 Jan 19:54:42 19:58:53 63° 259° (W) 20:03:08 437.475
Cubesat XI-IV 21 Jan 19:58:41 19:59:44 11° 270° (W) 20:00:46 437.490
AIST 2 21 Jan 20:00:35 20:04:39 64° 301° (WNW) 20:08:48 435.215
FUNcube-1 21 Jan 20:02:06 20:05:01 19° 68° (ENE) 20:07:57 145.935
UWE-3 21 Jan 20:09:19 20:13:15 43° 73° (ENE) 20:17:11 435.000/436.395/437.385
NOAA 18 21 Jan 20:11:49 20:14:58 15° 268° (W) 20:18:06 137.9125
ZACube-1 21 Jan 20:24:58 20:28:47 38° 73° (ENE) 20:32:39 437.345
CANX-2 21 Jan 20:25:09 20:28:35 24° 265° (W) 20:32:04 2200.000
SEEDS 21 Jan 20:32:46 20:36:35 34° 263° (W) 20:40:28 437.485
COMPASS 1 21 Jan 20:35:09 20:39:11 49° 261° (W) 20:43:17 437.405
CINEMA 3 21 Jan 20:37:59 20:39:38 12° 268° (W) 20:41:17 145.822/145.860
AAUSAT CUBESAT 2 21 Jan 20:44:58 20:49:00 49° 261° (W) 20:53:05 437.432
Cosmos 2499 21 Jan 20:51:19 20:59:34 55° 281° (W) 21:07:15 435.465 / 435.565
ISS 21 Jan 20:51:20 20:52:36 12° 128° (SE) 20:53:53 145.825
Oscar 11 21 Jan 20:58:07 21:02:26 82° 77° (ENE) 21:06:47 145.826/435.025
GONETS M04 21 Jan 21:00:28 21:09:03 63° 280° (W) 21:17:46
CUBEBUG 2 21 Jan 21:22:02 21:24:33 16° 267° (W) 21:27:04 437.445
STRAND 1 21 Jan 21:30:26 21:33:47 18° 296° (WNW) 21:37:10 437.568
RS-15 21 Jan 21:32:50 21:36:06 11° 94° (E) 21:39:24 29.354- 29.394
FUNcube-1 21 Jan 21:37:24 21:41:02 30° 264° (W) 21:44:42 145.935
HO-68 21 Jan 21:41:10 21:43:11 11° 271° (W) 21:45:13 435.675
UWE-3 21 Jan 21:48:04 21:49:55 13° 268° (W) 21:51:47 435.000/436.395/437.385
AO-85 21 Jan 21:48:43 21:49:58 11° 44° (NE) 21:51:13 145.980
DELFI C3 21 Jan 21:49:08 21:53:07 77° 258° (WSW) 21:57:09 145.870
ANTELSAT 21 Jan 21:52:42 21:55:29 16° 93° (E) 21:58:16 437.575/2403.000
HUMSAT D 21 Jan 21:58:30 22:02:33 70° 76° (ENE) 22:06:41 437.325/437.525
ZACube-1 21 Jan 22:02:55 22:05:14 15° 267° (W) 22:07:34 437.345
PRISM 21 Jan 22:08:43 22:12:51 83° 103° (ESE) 22:16:55 437.425
ISS 21 Jan 22:25:29 22:28:42 59° 322° (NW) 22:31:55 145.825
CUBEBUG 1 21 Jan 22:29:21 22:30:39 11° 64° (ENE) 22:31:58 437.445
JAS-2 21 Jan 22:33:02 22:38:48 24° 93° (E) 22:44:46 435.910
AISAT 21 Jan 22:49:13 22:51:03 12° 64° (ENE) 22:52:55 437.250
UNISAT 6 21 Jan 22:59:21 23:03:51 88° 277° (W) 23:08:24 437.425
BY70-1 21 Jan 23:02:53 23:05:50 76° 258° (WSW) 23:09:04 436.1900
GONETS M04 21 Jan 23:06:40 23:07:50 10° 302° (WNW) 23:09:01
TIGRISAT 21 Jan 23:12:16 23:16:42 68° 284° (WNW) 23:21:13 435.000
ESTCUBE 1 21 Jan 23:14:53 23:19:21 64° 74° (ENE) 23:23:52 437.505/2401.250
NANOSAT C BR1 21 Jan 23:18:06 23:18:26 10° 91° (E) 23:18:47 145.865
VELOX 1 21 Jan 23:20:25 23:24:05 26° 69° (ENE) 23:27:45 145.980
50 SAT 21 Jan 23:22:49 23:25:04 16° 68° (ENE) 23:27:19 437.505
AO-85 21 Jan 23:26:55 23:30:47 66° 242° (WSW) 23:34:41 145.980
ANTELSAT 21 Jan 23:28:05 23:32:19 42° 287° (WNW) 23:36:37 437.575/2403.000
RS-15 21 Jan 23:34:24 23:45:56 66° 113° (ESE) 23:58:00 29.354- 29.394
PCSat 21 Jan 23:36:30 23:39:39 16° 104° (ESE) 23:42:47 145.827
SPROUT 21 Jan 23:37:34 23:41:10 27° 70° (ENE) 23:44:47 437.525
UKube-1 21 Jan 23:44:28 23:47:08 16° 66° (ENE) 23:49:48 .
DX 1 21 Jan 23:47:31 23:51:02 24° 69° (ENE) 23:54:33 434.975-435.025
CUBEBUG 1 22 Jan 00:01:59 00:06:22 64° 259° (W) 00:10:45 437.445
ISS 22 Jan 00:04:22 00:05:44 12° 340° (NNW) 00:07:06 145.825
QB50P1 22 Jan 00:08:05 00:12:10 46° 99° (E) 00:16:14 145.935-145.965
POLYITAN 1 22 Jan 00:12:42 00:16:52 53° 100° (E) 00:21:01 437.675
QB50P2 22 Jan 00:14:00 00:18:11 60° 101° (E) 00:22:22 145.880/145.840
JAS-2 22 Jan 00:16:51 00:24:04 66° 287° (WNW) 00:31:48 435.910
AISAT 22 Jan 00:22:36 00:26:59 58° 259° (W) 00:31:23 437.250
YUBILEINY 22 Jan 00:30:15 00:36:57 23° 68° (ENE) 00:43:34 435.215
POPSAT HIP 1 22 Jan 00:35:04 00:39:18 84° 283° (WNW) 00:43:32 437.405
DUCHIFAT 1 22 Jan 00:43:52 00:48:04 77° 283° (WNW) 00:52:15 145.980
PHONESAT 2.4 22 Jan 00:47:40 00:49:08 16° 150° (SSE) 00:50:37 2401.200-2431.200
Cosmos 2504 22 Jan 00:48:06 00:50:05 11° 62° (ENE) 00:52:04 435.465 / 435.565
NANOSAT C BR1 22 Jan 00:50:20 00:54:28 57° 285° (WNW) 00:58:36 145.865
AIST 1 22 Jan 00:52:23 00:55:59 26° 76° (ENE) 00:59:33
50 SAT 22 Jan 00:54:59 00:58:02 26° 263° (W) 01:01:06 437.505
ESTCUBE 1 22 Jan 00:55:39 00:56:32 10° 270° (W) 00:57:26 437.505/2401.250
VELOX 1 22 Jan 00:56:43 01:00:25 26° 264° (W) 01:04:10 145.980
TISAT 1 22 Jan 00:59:41 01:03:23 31° 71° (ENE) 01:07:05 437.305
BUGSAT 1 22 Jan 01:11:53 01:15:56 76° 102° (ESE) 01:20:00 437.445
SPROUT 22 Jan 01:13:44 01:17:02 22° 265° (W) 01:20:22 437.525
PCSat 22 Jan 01:17:05 01:22:26 62° 299° (WNW) 01:27:50 145.827
Cosmos 2491 22 Jan 01:18:14 01:24:51 25° 82° (E) 01:31:27 435.465 / 435.565
UKube-1 22 Jan 01:18:43 01:22:48 41° 261° (W) 01:26:54 .
BEESAT 3 22 Jan 01:22:05 01:26:03 59° 58° (ENE) 01:29:59 437.485
DX 1 22 Jan 01:23:22 01:27:04 27° 263° (W) 01:30:48 434.975-435.025
QB50P1 22 Jan 01:45:22 01:47:31 14° 294° (WNW) 01:49:38 145.935-145.965
RS-15 22 Jan 01:48:08 01:59:10 41° 316° (NW) 02:10:37 29.354- 29.394
POLYITAN 1 22 Jan 01:50:28 01:52:10 12° 295° (WNW) 01:53:52 437.675
QB50P2 22 Jan 01:52:18 01:53:26 11° 296° (WNW) 01:54:34 145.880/145.840
ITUPSAT 1 22 Jan 01:53:24 01:57:17 26° 68° (ENE) 02:01:12 437.325
Oscar 19 22 Jan 02:00:12 02:05:18 58° 101° (E) 02:10:21 437.125/150
JAS-2 22 Jan 02:05:20 02:07:55 12° 303° (WNW) 02:10:33 435.910
BEESAT 2 22 Jan 02:10:25 02:14:29 87° 60° (ENE) 02:18:31 435.950
MOZHAYETS 4 22 Jan 02:10:51 02:11:41 10° 62° (ENE) 02:12:33
CUSAT 1 22 Jan 02:13:14 02:15:39 13° 77° (ENE) 02:18:17 437.405
PHONESAT 2.4 22 Jan 02:20:38 02:22:51 73° 342° (NNW) 02:25:06 2401.200-2431.200
YUBILEINY 22 Jan 02:25:45 02:34:31 71° 267° (W) 02:43:10 435.215
BEESAT 22 Jan 02:26:00 02:30:38 57° 73° (ENE) 02:35:19 436.000
Gurwin Techsat 1B 22 Jan 02:27:32 02:32:47 56° 101° (E) 02:37:59 435.225
SWISSCUBE 22 Jan 02:27:45 02:32:27 68° 74° (ENE) 02:37:12 437.505
AIST 1 22 Jan 02:30:11 02:33:23 21° 272° (W) 02:36:34
TISAT 1 22 Jan 02:36:08 02:39:03 18° 266° (W) 02:41:58 437.305
Cosmos 2504 22 Jan 02:37:26 02:44:49 79° 82° (E) 02:51:57 435.465 / 435.565
M-CUBED/EXP-1 PRIME 22 Jan 02:45:29 02:47:53 15° 63° (ENE) 02:50:12 437.505
ITAMSAT 1 22 Jan 02:48:14 02:51:21 16° 93° (E) 02:54:27 435.822/435.867
PCSat 22 Jan 03:06:32 03:06:57 10° 319° (NW) 03:07:21 145.827
Cosmos 2491 22 Jan 03:12:19 03:20:54 63° 280° (W) 03:29:34 435.465 / 435.565
AUBIESAT-1 22 Jan 03:19:21 03:22:56 27° 67° (ENE) 03:26:20 437.475
ISS 22 Jan 03:19:36 03:21:14 13° 21° (NNE) 03:22:51 145.825
ITUPSAT 1 22 Jan 03:30:49 03:34:58 30° 263° (W) 03:39:10 437.325
Oscar 19 22 Jan 03:41:00 03:44:05 16° 297° (WNW) 03:47:11 437.125/150
MOZHAYETS 4 22 Jan 03:43:38 03:48:11 74° 259° (WSW) 03:52:47
CUSAT 1 22 Jan 03:51:08 03:56:12 75° 281° (W) 04:02:52 437.405
AO-7 22 Jan 03:53:04 04:01:04 47° 101° (E) 04:08:57 29.400- 29.500
PHONESAT 2.4 22 Jan 03:54:51 03:56:57 34° 0° (N) 03:59:02 2401.200-2431.200
BEESAT 22 Jan 04:06:36 04:08:45 13° 268° (W) 04:10:55 436.000
Gurwin Techsat 1B 22 Jan 04:08:48 04:12:14 18° 296° (WNW) 04:15:39 435.225
RS-15 22 Jan 04:08:51 04:16:37 18° 349° (N) 04:24:27 29.354- 29.394
SWISSCUBE 22 Jan 04:09:31 04:10:40 11° 269° (W) 04:11:48 437.505
KKS-1 22 Jan 04:10:39 04:15:03 69° 76° (ENE) 04:19:29 437.445
M-CUBED/EXP-1 PRIME 22 Jan 04:17:46 04:22:02 47° 255° (WSW) 04:26:02 437.505
AIST 2 22 Jan 04:23:38 04:27:42 43° 55° (NE) 04:31:44 435.215
ITAMSAT 1 22 Jan 04:26:02 04:31:07 56° 288° (WNW) 04:36:12 435.822/435.867
YUBILEINY 22 Jan 04:27:53 04:29:33 11° 286° (WNW) 04:31:11 435.215
Cosmos 2504 22 Jan 04:33:23 04:37:06 15° 281° (W) 04:40:47 435.465 / 435.565
CUBESAT XI-V 22 Jan 04:34:02 04:38:37 55° 74° (ENE) 04:43:14 437.345
AUBIESAT-1 22 Jan 04:53:50 04:57:15 23° 258° (WSW) 05:00:31 437.475
ISS 22 Jan 04:54:57 04:58:12 71° 40° (NE) 05:01:25 145.825
STARS 22 Jan 04:58:52 05:03:15 77° 258° (WSW) 05:07:38 437.465
DANDE 22 Jan 05:00:22 05:04:05 52° 284° (WNW) 05:09:08 436.750
GOMX 1 22 Jan 05:12:05 05:13:10 11° 90° (E) 05:14:15 467.674
HORYU 2 22 Jan 05:14:33 05:17:06 15° 93° (E) 05:19:38 437.375
BRITE-PL 22 Jan 05:14:57 05:19:23 38° 97° (E) 05:23:29 437.365/2234.400
Cosmos 2491 22 Jan 05:18:39 05:19:41 10° 302° (WNW) 05:20:43 435.465 / 435.565
O/OREOS (USA 219) 22 Jan 05:23:49 05:26:06 14° 99° (E) 05:28:23 437.305
PHONESAT 2.4 22 Jan 05:28:46 05:31:00 79° 17° (NNE) 05:33:14 2401.200-2431.200
CUSAT 1 22 Jan 05:39:17 05:39:47 10° 304° (NW) 05:40:17 437.405
AO-7 22 Jan 05:46:07 05:53:35 38° 298° (WNW) 06:01:01 29.400- 29.500
CUTE-I 22 Jan 05:51:05 05:53:56 14° 92° (E) 05:56:48 437.470
AIST 2 22 Jan 06:03:13 06:05:48 16° 251° (WSW) 06:08:22 435.215
CUBESAT XI-V 22 Jan 06:14:03 06:16:18 13° 269° (W) 06:18:33 437.345
RS-15 22 Jan 06:26:23 06:35:47 24° 26° (NNE) 06:45:00 29.354- 29.394
Cubesat XI-IV 22 Jan 06:33:12 06:38:09 38° 98° (E) 06:43:05 437.490
NOAA 15 22 Jan 06:35:27 06:40:28 41° 99° (E) 06:45:27 137.62
LilacSat-2 22 Jan 06:36:16 06:40:00 46° 99° (E) 06:43:44 437.200
Cosmos 2499 22 Jan 06:45:05 06:51:51 45° 77° (ENE) 06:58:33 435.465 / 435.565
GOMX 1 22 Jan 06:47:26 06:51:40 52° 286° (WNW) 06:55:43 467.674
HORYU 2 22 Jan 06:49:35 06:53:49 45° 288° (WNW) 06:58:04 437.375
NOAA 18 22 Jan 06:52:55 06:57:41 30° 97° (E) 07:02:26 137.9125
BRITE-PL 22 Jan 06:54:11 06:57:30 19° 295° (WNW) 07:00:39 437.365/2234.400
CINEMA 3 22 Jan 06:55:44 06:57:47 13° 93° (E) 06:59:52 145.822/145.860
O/OREOS (USA 219) 22 Jan 07:00:44 07:05:02 47° 294° (WNW) 07:09:22 437.305
PHONESAT 2.4 22 Jan 07:03:22 07:04:41 14° 211° (SSW) 07:06:00 2401.200-2431.200
STRAND 1 22 Jan 07:03:54 07:08:54 61° 73° (ENE) 07:13:56 437.568
GONETS M04 22 Jan 07:12:59 07:21:44 61° 79° (E) 07:30:25
DOVE 4 22 Jan 07:16:38 07:20:46 67° 284° (WNW) 07:24:52 437.250
HO-68 22 Jan 07:18:24 07:23:45 22° 94° (E) 07:29:04 435.675
CUTE-I 22 Jan 07:29:05 07:34:23 63° 286° (WNW) 07:39:38 437.470
CUTE 1.7 + AOD 2 22 Jan 07:41:54 07:45:28 25° 95° (E) 07:48:59 437.475
SO-50 22 Jan 07:55:24 08:00:08 84° 120° (ESE) 08:04:50 436.795
UWE-3 22 Jan 08:02:52 08:03:57 11° 91° (E) 08:05:01 435.000/436.395/437.385
CANX-2 22 Jan 08:11:00 08:15:18 66° 101° (E) 08:19:33 2200.000
LilacSat-2 22 Jan 08:12:29 08:13:51 12° 294° (WNW) 08:15:14 437.200
Cubesat XI-IV 22 Jan 08:13:41 08:18:00 25° 293° (WNW) 08:22:18 437.490
NOAA 15 22 Jan 08:15:51 08:19:56 23° 295° (WNW) 08:24:01 137.62
SEEDS 22 Jan 08:18:04 08:22:08 43° 99° (E) 08:26:10 437.485
COMPASS 1 22 Jan 08:19:58 08:23:37 29° 96° (E) 08:27:16 437.405
PCSat 22 Jan 08:26:22 08:27:49 11° 42° (NE) 08:29:17 145.827
AAUSAT CUBESAT 2 22 Jan 08:29:15 08:32:52 28° 96° (E) 08:36:25 437.432
CINEMA 3 22 Jan 08:31:06 08:35:07 45° 286° (WNW) 08:39:15 145.822/145.860
NOAA 18 22 Jan 08:33:30 08:38:16 32° 292° (WNW) 08:43:03 137.9125
Cosmos 2499 22 Jan 08:38:51 08:44:35 27° 275° (W) 08:50:19 435.465 / 435.565
RS-15 22 Jan 08:39:03 08:51:22 66° 55° (NE) 09:03:08 29.354- 29.394
STRAND 1 22 Jan 08:45:55 08:48:27 14° 268° (W) 08:51:00 437.568
Oscar 11 22 Jan 08:48:16 08:51:13 17° 93° (E) 08:54:08 145.826/435.025
ANTELSAT 22 Jan 08:51:45 08:52:45 11° 64° (ENE) 08:53:45 437.575/2403.000
PRISM 22 Jan 08:55:47 08:59:44 43° 73° (ENE) 09:03:43 437.425
HO-68 22 Jan 09:04:49 09:11:53 63° 290° (WNW) 09:18:54 435.675
GONETS M04 22 Jan 09:10:54 09:17:51 27° 277° (W) 09:24:48
CUBEBUG 2 22 Jan 09:12:09 09:16:31 72° 283° (WNW) 09:21:01 437.445
CUTE 1.7 + AOD 2 22 Jan 09:17:41 09:21:11 25° 290° (WNW) 09:24:39 437.475
FUNcube-1 22 Jan 09:26:11 09:30:31 54° 100° (E) 09:34:56 145.935
DELFI C3 22 Jan 09:29:34 09:31:55 15° 93° (E) 09:34:15 145.870
UWE-3 22 Jan 09:36:21 09:40:42 61° 285° (WNW) 09:45:09 435.000/436.395/437.385
SO-50 22 Jan 09:38:54 09:41:11 13° 317° (NW) 09:43:28 436.795
HUMSAT D 22 Jan 09:45:13 09:47:20 13° 92° (E) 09:49:27 437.325/437.525
CANX-2 22 Jan 09:49:54 09:50:32 10° 296° (WNW) 09:51:09 2200.000
ZACube-1 22 Jan 09:50:27 09:54:51 72° 284° (WNW) 09:59:21 437.345
SEEDS 22 Jan 09:55:03 09:57:26 15° 294° (WNW) 09:59:48 437.485
COMPASS 1 22 Jan 09:55:50 09:58:59 21° 291° (WNW) 10:02:06 437.405
UNISAT 6 22 Jan 09:56:12 10:00:24 61° 75° (ENE) 10:04:37 437.425
AAUSAT CUBESAT 2 22 Jan 10:04:58 10:08:08 21° 291° (WNW) 10:11:17 437.432
PCSat 22 Jan 10:06:48 10:12:14 68° 61° (ENE) 10:17:37 145.827
TIGRISAT 22 Jan 10:08:51 10:13:06 81° 75° (ENE) 10:17:21 435.000
Oscar 11 22 Jan 10:23:26 10:27:26 36° 288° (WNW) 10:31:25 145.826/435.025
ANTELSAT 22 Jan 10:24:42 10:28:55 61° 260° (W) 10:33:07 437.575/2403.000
JAS-2 22 Jan 10:28:01 10:33:02 43° 69° (ENE) 10:38:32 435.910
PRISM 22 Jan 10:33:10 10:35:13 13° 267° (W) 10:37:15 437.425
RS-15 22 Jan 10:52:33 11:03:01 35° 256° (WSW) 11:13:08 29.354- 29.394
HO-68 22 Jan 10:56:41 10:58:11 11° 308° (NW) 10:59:41 435.675
QB50P1 22 Jan 10:58:49 11:02:19 27° 70° (ENE) 11:05:51 145.935-145.965
DELFI C3 22 Jan 11:03:12 11:06:49 34° 288° (WNW) 11:10:25 145.870
POLYITAN 1 22 Jan 11:03:29 11:07:09 30° 71° (ENE) 11:10:50 437.675
FUNcube-1 22 Jan 11:04:11 11:06:18 13° 294° (WNW) 11:08:25 145.935
QB50P2 22 Jan 11:04:41 11:08:27 34° 72° (ENE) 11:12:15 145.880/145.840
ESTCUBE 1 22 Jan 11:10:37 11:13:20 16° 93° (E) 11:16:03 437.505/2401.250
HUMSAT D 22 Jan 11:19:02 11:23:09 46° 286° (WNW) 11:27:15 437.325/437.525
POPSAT HIP 1 22 Jan 11:25:18 11:29:22 54° 74° (ENE) 11:33:28 437.405
DUCHIFAT 1 22 Jan 11:33:23 11:37:28 57° 75° (ENE) 11:41:34 145.980
BY70-1 22 Jan 11:39:11 11:42:24 70° 102° (ESE) 11:45:21 436.1900
NANOSAT C BR1 22 Jan 11:39:59 11:44:08 77° 78° (ENE) 11:48:20 145.865
PCSat 22 Jan 11:52:12 11:54:59 14° 257° (WSW) 11:57:45 145.827
CUBEBUG 1 22 Jan 11:52:55 11:56:31 26° 96° (E) 12:00:06 437.445
BUGSAT 1 22 Jan 11:59:36 12:03:22 38° 73° (ENE) 12:07:06 437.445
JAS-2 22 Jan 12:14:25 12:18:25 21° 268° (W) 12:22:42 435.910
AISAT 22 Jan 12:14:53 12:18:41 29° 97° (E) 12:22:29 437.250
50 SAT 22 Jan 12:22:19 12:25:07 22° 96° (E) 12:27:53 437.505
QB50P1 22 Jan 12:34:47 12:38:02 22° 265° (W) 12:41:19 145.935-145.965
POLYITAN 1 22 Jan 12:39:57 12:42:57 19° 266° (W) 12:45:59 437.675
QB50P2 22 Jan 12:41:31 12:44:19 17° 266° (W) 12:47:07 145.880/145.840
ESTCUBE 1 22 Jan 12:46:02 12:50:19 43° 288° (WNW) 12:54:35 437.505/2401.250
CUSAT 1 22 Jan 12:46:41 12:50:37 14° 60° (ENE) 12:54:25 437.405
VELOX 1 22 Jan 12:47:42 12:52:05 66° 101° (E) 12:56:26 145.980
SPROUT 22 Jan 13:00:08 13:04:23 70° 102° (ESE) 13:08:37 437.525
POPSAT HIP 1 22 Jan 13:04:28 13:05:26 11° 269° (W) 13:06:25 437.405
AO-7 22 Jan 13:05:03 13:06:48 11° 46° (NE) 13:08:33 29.400- 29.500
UKube-1 22 Jan 13:07:32 13:11:29 35° 98° (E) 13:15:25 .
DX 1 22 Jan 13:12:36 13:16:52 57° 101° (E) 13:21:07 434.975-435.025
Oscar 19 22 Jan 13:14:53 13:20:02 70° 74° (ENE) 13:25:14 437.125/150
AIST 1 22 Jan 13:20:17 13:23:12 18° 87° (E) 13:26:07
Cosmos 2491 22 Jan 13:24:54 13:33:35 60° 79° (E) 13:42:16 435.465 / 435.565
Cosmos 2504 22 Jan 13:25:59 13:28:13 11° 77° (ENE) 13:30:25 435.465 / 435.565
YUBILEINY 22 Jan 13:29:06 13:36:11 28° 83° (E) 13:43:18 435.215
CUBEBUG 1 22 Jan 13:29:12 13:32:41 24° 291° (WNW) 13:36:10 437.445
BUGSAT 1 22 Jan 13:36:41 13:38:52 14° 267° (W) 13:41:02 437.445
AO-85 22 Jan 13:38:35 13:43:19 63° 118° (ESE) 13:47:44 145.980
Gurwin Techsat 1B 22 Jan 13:46:35 13:51:52 74° 74° (ENE) 13:57:11 435.225
AISAT 22 Jan 13:51:34 13:54:59 23° 292° (WNW) 13:58:23 437.250
50 SAT 22 Jan 13:55:38 13:58:11 19° 291° (WNW) 14:00:42 437.505
DANDE 22 Jan 13:56:31 14:02:03 20° 66° (ENE) 14:07:43 436.750
ITAMSAT 1 22 Jan 14:04:13 14:08:01 21° 65° (ENE) 14:11:50 435.822/435.867
